TimeCDT,TemperatureF,Dew PointF,Humidity,Sea Level PressureIn,VisibilityMPH,Wind Direction,Wind SpeedMPH,Gust SpeedMPH,PrecipitationIn,Events,Conditions,WindDirDegrees,DateUTC
12:02 AM,51.8,44.6,76,30.04,10.0,NE,13.8,-,N/A,,Overcast,40,2011-10-28 05:02:00
12:54 AM,50.0,45.0,83,30.04,7.0,NE,11.5,-,0.02,Rain,Light Rain,50,2011-10-28 05:54:00
1:54 AM,48.9,45.0,86,30.04,7.0,NNE,10.4,-,0.08,Rain,Rain,30,2011-10-28 06:54:00
2:37 AM,48.2,44.6,87,30.05,5.0,North,10.4,-,0.05,Rain,Rain,360,2011-10-28 07:37:00
2:48 AM,48.2,46.4,93,30.04,4.0,NNE,8.1,-,0.08,Rain,Rain,20,2011-10-28 07:48:00
2:54 AM,48.0,45.0,89,30.04,4.0,North,10.4,-,0.10,Rain,Rain,10,2011-10-28 07:54:00
3:54 AM,48.9,45.0,86,30.02,5.0,NNE,12.7,-,0.10,Rain,Rain,30,2011-10-28 08:54:00
4:11 AM,48.2,44.6,87,30.06,5.0,North,9.2,18.4,0.01,Rain,Light Rain,350,2011-10-28 09:11:00
4:47 AM,48.2,44.6,87,30.09,4.0,North,13.8,-,0.08,Rain,Rain,10,2011-10-28 09:47:00
4:54 AM,48.2,44.6,87,30.08,4.0,North,13.8,-,N/A,Rain,Heavy Rain,360,2011-10-28 09:54:00
4:59 AM,48.2,44.6,87,30.11,4.0,NNW,10.4,-,0.01,Rain,Rain,340,2011-10-28 09:59:00
5:54 AM,48.0,45.0,89,30.06,6.0,NE,15.0,-,0.08,Rain,Light Rain,50,2011-10-28 10:54:00
6:37 AM,46.4,44.6,93,30.10,7.0,North,9.2,-,0.01,Rain,Light Rain,350,2011-10-28 11:37:00
6:49 AM,46.4,44.6,93,30.10,7.0,North,11.5,-,0.01,,Overcast,360,2011-10-28 11:49:00
6:54 AM,46.9,44.1,90,30.11,7.0,North,10.4,-,0.01,,Overcast,350,2011-10-28 11:54:00
7:20 AM,46.4,44.6,93,30.11,7.0,North,12.7,-,N/A,,Overcast,10,2011-10-28 12:20:00
7:43 AM,46.4,44.6,93,30.11,8.0,NNE,11.5,-,N/A,,Overcast,20,2011-10-28 12:43:00
7:54 AM,46.9,44.1,90,30.11,8.0,NNE,13.8,-,N/A,,Overcast,20,2011-10-28 12:54:00
8:54 AM,48.0,44.1,86,30.14,10.0,North,12.7,-,0.00,,Overcast,10,2011-10-28 13:54:00
8:58 AM,48.2,44.6,87,30.13,10.0,NNE,15.0,-,N/A,,Overcast,20,2011-10-28 13:58:00
9:54 AM,48.9,43.0,80,30.15,10.0,NNE,12.7,-,N/A,,Overcast,20,2011-10-28 14:54:00
10:01 AM,48.2,44.6,87,30.15,10.0,NNE,11.5,-,N/A,,Overcast,30,2011-10-28 15:01:00
10:54 AM,50.0,42.1,74,30.15,10.0,NNE,12.7,-,N/A,,Overcast,20,2011-10-28 15:54:00
11:54 AM,53.1,39.9,61,30.14,10.0,NNE,16.1,-,N/A,,Mostly Cloudy,20,2011-10-28 16:54:00
12:00 PM,53.6,39.2,58,30.14,10.0,NNE,12.7,-,N/A,,Mostly Cloudy,20,2011-10-28 17:00:00
12:54 PM,54.0,39.0,57,30.12,10.0,NNE,16.1,-,N/A,,Mostly Cloudy,20,2011-10-28 17:54:00
1:54 PM,54.0,37.0,53,30.11,10.0,North,16.1,-,N/A,,Mostly Cloudy,10,2011-10-28 18:54:00
2:54 PM,54.0,37.0,53,30.09,10.0,North,17.3,26.5,N/A,,Mostly Cloudy,350,2011-10-28 19:54:00
3:54 PM,55.9,37.0,49,30.10,10.0,NNE,16.1,-,N/A,,Mostly Cloudy,20,2011-10-28 20:54:00
4:54 PM,57.0,36.0,45,30.11,10.0,North,17.3,23.0,N/A,,Mostly Cloudy,10,2011-10-28 21:54:00
5:54 PM,54.0,34.0,47,30.13,10.0,NNE,10.4,-,N/A,,Scattered Clouds,20,2011-10-28 22:54:00
6:54 PM,50.0,35.1,57,30.15,10.0,North,5.8,-,N/A,,Scattered Clouds,360,2011-10-28 23:54:00
7:54 PM,50.0,35.6,58,30.17,10.0,North,3.5,-,N/A,,Clear,350,2011-10-29 00:54:00
8:54 PM,46.0,36.0,68,30.17,10.0,Calm,Calm,-,N/A,,Clear,0,2011-10-29 01:54:00
9:54 PM,45.0,37.0,74,30.18,10.0,Calm,Calm,-,N/A,,Clear,0,2011-10-29 02:54:00
10:54 PM,43.0,37.9,82,30.19,10.0,Calm,Calm,-,N/A,,Clear,0,2011-10-29 03:54:00
11:54 PM,42.1,37.0,82,30.19,10.0,Calm,Calm,-,N/A,,Clear,0,2011-10-29 04:54:00